Wind_Speed
44 43 43 44 44 45 47 49 52 53 49 47 45 44 43 40 39 37 38 40 38 36 35 38 43 48 52 57 63 65 63 63 62 62 58 42 40 39 33 32 30 29 30
47 47 47 46 46 48 48 52 53 48 46 45 43 42 38 37 36 38 39 37 38 35 37 42 49 54 59 63 64 64 63 63 64 64 51 37 37 37 34 31 32 31 32
51 50 49 50 50 49 51 55 51 47 44 42 40 38 36 34 37 37 37 36 33 36 43 52 55 57 61 64 67 67 65 67 67 59 37 33 34 35 35 33 33 34 35
50 50 49 52 51 50 53 52 49 45 42 40 36 34 33 35 36 36 36 35 38 44 49 53 57 61 63 65 67 66 69 68 57 39 29 32 35 36 36 36 35 36 37
50 50 52 52 51 54 53 49 44 42 37 35 34 33 33 35 36 36 37 39 42 47 51 54 59 63 65 66 65 67 66 63 39 34 33 35 36 36 35 37 38 39 41
48 50 49 52 54 52 48 44 40 35 33 33 34 35 36 35 35 36 38 42 46 50 54 59 63 65 65 64 63 66 63 42 34 35 35 35 36 37 37 38 39 41 42
46 49 54 54 51 46 43 36 33 31 29 33 34 33 34 35 37 40 43 47 52 54 58 63 66 64 63 62 65 62 48 34 35 38 38 38 37 37 38 40 40 42 43
53 55 54 48 43 40 32 31 30 29 33 35 35 36 34 38 40 43 47 51 53 60 62 65 66 63 63 62 62 51 39 34 37 40 39 39 39 40 41 42 43 44 45
49 48 46 44 41 33 31 31 30 33 37 36 35 36 39 43 46 47 51 55 60 61 65 65 63 63 63 62 54 41 36 37 41 41 39 40 41 42 43 45 45 46 46
48 46 42 39 32 33 33 32 33 37 38 39 39 41 44 45 47 52 58 61 62 63 66 63 61 62 62 55 39 37 37 41 44 43 44 45 47 47 46 47 47 47 47
44 40 36 33 33 32 32 33 36 37 40 40 43 46 47 50 55 59 61 61 64 65 63 61 61 60 53 36 35 38 40 44 43 46 50 53 53 52 51 50 48 47 46
39 32 30 35 35 33 34 36 38 39 41 41 44 46 51 56 61 63 64 65 65 63 60 58 58 50 33 35 37 39 42 44 47 51 55 56 55 53 50 48 47 46 44
31 31 34 34 34 35 37 39 41 43 42 44 48 52 56 61 64 65 67 66 64 59 57 55 48 33 37 37 39 38 42 48 52 55 55 56 51 44 44 45 44 40 41
33 34 35 34 36 38 41 45 43 45 47 51 53 57 60 62 66 69 69 68 64 60 53 43 33 36 37 38 39 43 46 51 55 54 53 50 45 43 44 44 39 38 41
35 35 37 38 38 41 42 43 45 48 49 52 54 56 60 64 70 72 72 68 59 49 35 28 33 35 35 39 44 49 52 55 54 51 50 48 45 44 43 42 39 38 39
37 36 37 39 40 42 44 46 47 48 49 51 53 57 62 67 68 59 53 44 35 24 26 28 29 34 41 46 50 52 55 53 49 47 47 46 44 43 43 42 42 42 42
34 35 37 38 42 44 46 46 45 47 50 50 52 58 62 54 34 26 23 22 27 26 26 30 36 42 47 51 52 52 48 47 44 44 44 44 43 42 42 43 44 46 47
35 34 35 36 39 41 43 46 48 46 45 48 53 52 32 24 25 26 24 24 27 32 35 40 44 49 48 50 49 44 44 42 44 45 44 44 45 45 45 46 47 47 47
38 38 35 36 40 42 45 43 40 41 45 49 47 29 25 25 26 25 28 31 34 38 44 50 52 49 49 46 42 43 43 42 42 44 44 45 46 46 47 49 50 50 50
37 39 40 39 40 41 41 41 40 41 46 44 32 26 25 26 27 30 35 38 41 46 49 51 50 46 45 44 45 44 44 43 44 46 46 47 47 48 49 50 52 52 53
41 39 39 39 39 39 42 44 39 41 44 36 29 29 29 31 33 37 41 44 48 51 51 49 44 44 43 43 42 43 43 45 46 47 48 49 49 49 50 51 52 53 54
42 42 41 41 41 39 42 43 39 38 38 35 34 34 34 36 39 42 45 49 50 50 47 43 42 41 43 42 42 42 42 42 44 44 46 47 48 50 51 53 54 55 57
38 40 40 41 42 42 41 41 39 36 37 38 37 38 40 41 43 45 48 49 48 45 45 42 42 41 43 42 41 41 41 42 45 46 48 50 52 53 54 56 58 59 60
36 40 42 42 44 42 41 41 37 38 39 38 40 39 41 43 45 48 46 43 43 42 42 43 43 44 41 40 41 44 46 47 49 51 53 54 56 57 58 59 61 63 63
37 41 43 43 43 42 41 39 36 37 38 39 41 44 45 45 45 42 42 42 42 43 43 45 43 42 41 43 45 47 49 51 53 54 55 56 57 58 60 62 64 65 65
41 40 40 43 43 42 40 36 35 37 41 44 46 45 43 40 39 40 40 42 43 45 44 42 42 43 45 47 49 51 53 55 58 59 61 62 62 63 64 65 67 69 69
Wind_Direction
277 279 274 276 282 284 289 293 295 296 295 294 296 299 300 304 306 306 306 307 308 305 301 306 312 315 317 320 320 320 319 321 320 321 319 305 311 315 307 307 311 318 323
278 276 274 276 281 283 290 294 295 292 292 295 298 298 300 303 303 305 306 307 308 302 308 314 316 318 319 318 317 318 319 319 319 321 312 302 310 314 307 304 306 309 314
274 273 273 275 277 285 291 294 293 292 296 298 297 296 298 302 302 303 306 308 306 311 317 320 320 318 317 319 321 320 319 320 321 318 307 302 309 314 307 303 303 305 308
270 272 274 274 280 287 291 290 290 292 295 295 295 294 298 301 301 304 306 307 310 315 319 319 318 319 320 320 319 318 319 320 321 317 307 308 313 314 309 307 303 304 304
270 273 273 278 283 285 287 285 287 292 292 288 288 295 298 300 304 307 306 308 314 317 318 318 318 318 318 317 317 317 320 322 316 318 314 309 310 313 313 309 306 305 305
272 272 277 280 284 286 285 285 289 285 285 290 294 297 302 308 306 304 306 308 313 316 316 315 314 316 316 315 315 318 322 316 316 317 317 313 308 307 310 311 309 307 305
272 275 278 283 283 282 283 286 280 284 287 286 292 300 306 304 302 304 306 308 310 313 314 312 311 314 314 313 315 319 318 310 315 315 311 310 310 309 308 309 308 307 306
273 275 280 279 280 279 278 277 284 284 284 289 295 302 302 302 303 304 306 307 310 312 311 309 310 312 313 315 316 316 311 309 314 314 311 310 309 308 307 306 306 305 305
272 273 274 278 275 270 271 277 279 282 285 291 297 301 303 303 305 304 306 310 311 308 306 307 311 312 312 315 314 309 307 310 312 312 312 312 312 311 309 307 305 302 302
269 271 273 268 264 267 273 275 277 283 288 294 298 301 301 303 304 306 308 309 306 303 304 309 309 310 313 312 308 307 307 310 311 310 310 310 310 309 308 305 303 299 299
265 266 259 258 264 266 270 274 278 284 290 294 296 298 302 304 305 306 307 303 300 304 306 305 307 311 310 307 305 307 309 309 310 310 311 311 309 307 305 304 302 298 296
260 248 250 262 264 267 270 277 282 286 291 297 301 305 308 308 308 306 301 300 300 302 302 305 309 308 303 304 307 309 309 311 312 313 313 311 310 307 304 303 302 299 296
243 248 257 261 264 266 273 279 283 287 292 297 302 306 307 308 306 301 299 298 298 298 302 307 305 298 303 307 307 309 311 312 313 314 314 314 313 310 309 307 303 300 299
245 252 258 260 265 271 277 280 286 292 299 304 306 307 309 306 302 300 297 295 295 299 304 300 295 300 304 307 308 311 313 314 314 313 314 316 312 312 313 314 306 304 303
253 255 263 263 268 273 281 290 296 301 304 306 309 310 308 305 301 297 296 296 297 297 297 290 298 305 307 306 310 312 313 314 312 312 316 316 312 313 315 314 314 307 304
253 261 265 268 272 283 290 295 299 303 308 310 311 309 305 302 301 300 301 304 303 298 302 303 306 305 306 309 311 312 312 312 311 313 318 319 317 315 314 314 313 311 308
262 265 268 277 284 291 294 296 301 305 308 308 307 304 304 309 319 332 334 323 313 310 310 310 309 310 311 311 312 312 313 314 311 313 317 319 321 320 317 314 312 312 311
269 273 280 283 286 289 295 298 299 301 302 303 305 306 312 320 317 316 316 316 313 311 311 311 311 312 312 312 313 314 315 314 312 314 315 316 317 319 319 318 318 318 315
275 277 281 287 291 293 293 292 295 298 302 305 304 302 303 307 306 309 310 308 308 310 312 314 314 313 313 312 312 314 315 312 312 313 315 317 317 317 316 315 315 315 315
284 286 289 288 290 291 289 289 293 299 303 302 293 293 296 297 298 300 302 303 305 308 309 311 311 311 312 309 308 310 312 313 312 311 313 314 313 313 313 312 313 313 313
285 284 285 286 286 286 286 287 294 302 301 291 283 289 293 296 298 299 302 305 307 308 309 311 311 312 313 315 312 308 307 309 311 312 314 315 315 314 312 311 311 312 312
277 279 279 280 277 278 283 291 299 298 292 277 281 288 292 294 296 299 301 302 303 305 308 309 308 308 310 310 312 312 313 313 314 315 314 313 314 313 312 312 311 311 311
272 273 271 271 275 280 286 290 294 289 281 277 284 290 294 296 299 300 301 302 305 306 307 307 307 307 308 310 311 311 312 312 312 312 311 310 310 310 310 310 310 309 309
266 266 270 276 278 282 287 289 289 283 277 280 287 290 294 297 298 300 301 303 303 303 303 304 306 307 307 308 310 310 310 310 309 309 308 307 308 308 308 308 307 307 306
264 271 276 278 282 287 288 284 281 278 278 282 285 292 297 299 299 299 300 301 302 303 303 304 304 304 304 306 307 307 307 307 307 307 307 306 305 304 303 303 303 303 303
270 274 279 283 285 285 281 281 278 278 280 285 291 294 297 297 297 299 300 300 301 301 302 302 301 301 302 303 304 305 305 305 306 307 307 307 307 305 302 300 300 300 300
Height
5774 5773 5771 5768 5766 5763 5759 5756 5752 5747 5743 5740 5736 5732 5727 5724 5722 5718 5714 5708 5704 5699 5695 5690 5685 5678 5671 5664 5655 5645 5636 5626 5618 5609 5601 5594 5590 5584 5578 5573 5569 5564 5558
5765 5763 5761 5759 5756 5753 5750 5746 5742 5737 5734 5731 5727 5723 5719 5716 5713 5709 5704 5700 5696 5691 5686 5681 5675 5669 5661 5653 5643 5634 5624 5615 5606 5597 5589 5585 5581 5575 5570 5566 5562 5557 5552
5753 5751 5750 5749 5746 5744 5741 5736 5732 5728 5726 5722 5719 5715 5712 5708 5704 5701 5696 5691 5688 5683 5679 5674 5666 5659 5650 5641 5633 5624 5613 5604 5594 5585 5579 5576 5572 5567 5563 5558 5554 5550 5545
5740 5742 5740 5737 5735 5734 5730 5725 5722 5719 5716 5714 5711 5707 5704 5700 5696 5692 5687 5685 5680 5675 5669 5662 5656 5649 5639 5630 5621 5611 5601 5592 5583 5576 5572 5569 5565 5560 5555 5550 5546 5541 5537
5731 5730 5728 5727 5725 5722 5718 5715 5713 5711 5708 5706 5703 5698 5694 5691 5687 5683 5680 5676 5671 5665 5659 5652 5645 5637 5629 5619 5609 5600 5590 5581 5575 5571 5565 5561 5557 5552 5547 5542 5538 5533 5528
5720 5719 5718 5716 5713 5710 5707 5706 5704 5702 5700 5698 5695 5691 5687 5683 5679 5676 5672 5667 5662 5656 5649 5642 5634 5626 5616 5606 5598 5589 5580 5572 5569 5564 5558 5553 5548 5544 5539 5534 5529 5524 5520
5709 5709 5707 5704 5701 5699 5699 5698 5696 5694 5691 5688 5685 5682 5679 5675 5672 5667 5663 5658 5653 5646 5639 5632 5623 5614 5604 5595 5586 5577 5570 5565 5562 5556 5551 5545 5540 5535 5530 5525 5520 5515 5510
5697 5696 5695 5692 5691 5690 5689 5688 5687 5686 5684 5680 5677 5673 5669 5666 5663 5658 5654 5648 5641 5635 5628 5620 5611 5602 5593 5584 5575 5567 5562 5558 5554 5549 5543 5537 5531 5526 5521 5515 5510 5505 5500
5685 5685 5683 5682 5682 5681 5681 5680 5679 5677 5674 5672 5668 5664 5661 5658 5653 5648 5643 5636 5630 5622 5615 5606 5599 5591 5583 5574 5566 5559 5554 5550 5546 5540 5535 5529 5523 5517 5511 5505 5500 5494 5490
5674 5674 5674 5673 5673 5674 5673 5672 5671 5669 5667 5662 5658 5654 5651 5647 5642 5639 5633 5624 5616 5607 5602 5594 5586 5579 5571 5563 5556 5550 5546 5542 5537 5531 5525 5519 5513 5506 5500 5494 5489 5483 5478
5662 5663 5663 5664 5665 5664 5664 5664 5662 5659 5657 5653 5649 5646 5641 5637 5632 5628 5620 5613 5602 5595 5587 5579 5573 5566 5559 5553 5548 5542 5537 5532 5527 5521 5515 5508 5502 5494 5487 5481 5476 5471 5467
5651 5652 5655 5656 5655 5656 5656 5655 5653 5650 5648 5645 5642 5637 5632 5627 5622 5614 5607 5598 5591 5582 5574 5566 5561 5554 5550 5545 5540 5536 5528 5523 5517 5511 5503 5496 5488 5481 5475 5469 5463 5458 5455
5643 5645 5646 5646 5647 5648 5647 5645 5644 5642 5638 5635 5631 5626 5620 5614 5607 5598 5590 5583 5575 5570 5561 5555 5549 5545 5541 5537 5533 5527 5521 5513 5506 5499 5492 5483 5475 5468 5462 5457 5451 5447 5443
5635 5636 5637 5637 5638 5637 5637 5636 5634 5632 5628 5624 5620 5615 5608 5599 5590 5581 5574 5565 5559 5554 5553 5543 5539 5537 5531 5528 5524 5518 5512 5504 5495 5488 5481 5473 5465 5459 5452 5445 5439 5436 5433
5625 5626 5629 5628 5627 5628 5627 5626 5623 5621 5617 5612 5608 5602 5594 5585 5575 5565 5556 5549 5544 5540 5538 5535 5531 5527 5523 5519 5515 5508 5501 5493 5485 5478 5471 5463 5456 5450 5443 5436 5431 5426 5422
5615 5617 5618 5618 5618 5617 5615 5614 5612 5609 5606 5601 5595 5588 5580 5571 5560 5548 5539 5535 5532 5531 5531 5528 5524 5520 5516 5511 5505 5498 5490 5482 5474 5468 5461 5454 5447 5441 5435 5428 5423 5417 5412
5605 5607 5608 5608 5608 5608 5605 5603 5600 5597 5594 5589 5583 5575 5565 5554 5546 5539 5535 5532 5530 5527 5525 5522 5518 5513 5507 5499 5493 5486 5479 5471 5465 5459 5453 5447 5440 5433 5426 5419 5413 5408 5403
5598 5599 5598 5597 5597 5595 5593 5591 5588 5585 5581 5576 5569 5560 5552 5547 5542 5537 5534 5530 5526 5522 5518 5514 5510 5503 5496 5489 5482 5475 5468 5462 5456 5450 5444 5438 5431 5425 5418 5411 5405 5399 5392
5588 5587 5587 5586 5585 5584 5582 5581 5576 5571 5566 5561 5556 5548 5545 5541 5536 5532 5528 5525 5521 5516 5510 5504 5497 5491 5484 5478 5472 5465 5459 5453 5447 5440 5435 5429 5422 5416 5409 5402 5395 5389 5382
5576 5576 5575 5574 5574 5573 5572 5568 5561 5556 5553 5548 5543 5539 5537 5533 5530 5526 5522 5517 5513 5508 5502 5495 5487 5480 5474 5468 5462 5457 5451 5444 5438 5431 5425 5419 5412 5406 5399 5392 5384 5378 5370
5565 5565 5565 5564 5562 5561 5560 5556 5547 5542 5540 5536 5533 5531 5528 5524 5521 5517 5512 5507 5502 5496 5489 5483 5476 5470 5463 5457 5451 5446 5440 5434 5428 5421 5414 5408 5401 5395 5387 5380 5373 5365 5358
5554 5554 5553 5552 5551 5546 5545 5541 5533 5530 5528 5527 5524 5521 5518 5514 5511 5506 5502 5497 5491 5485 5478 5472 5465 5460 5454 5448 5442 5436 5430 5424 5418 5411 5404 5397 5390 5383 5376 5368 5361 5353 5346
5543 5543 5542 5541 5538 5534 5530 5526 5522 5519 5519 5518 5515 5512 5507 5503 5499 5494 5490 5484 5479 5472 5466 5460 5455 5450 5444 5438 5432 5426 5420 5414 5407 5401 5394 5386 5379 5372 5364 5356 5348 5340 5333
5530 5530 5529 5526 5525 5520 5516 5514 5510 5509 5509 5508 5506 5501 5496 5491 5487 5482 5477 5472 5467 5461 5456 5450 5444 5439 5434 5428 5422 5416 5409 5403 5396 5389 5382 5374 5367 5359 5351 5343 5334 5326 5319
5516 5517 5516 5514 5511 5506 5504 5503 5500 5501 5500 5497 5494 5489 5484 5479 5475 5470 5465 5460 5455 5450 5445 5439 5434 5429 5423 5418 5412 5405 5398 5391 5384 5376 5368 5361 5353 5345 5336 5328 5319 5311 5302
5506 5504 5503 5501 5498 5496 5495 5492 5491 5490 5489 5486 5482 5477 5471 5466 5462 5458 5453 5449 5443 5438 5433 5428 5423 5417 5411 5405 5398 5392 5385 5377 5370 5362 5353 5345 5337 5329 5320 5311 5302 5294 5286